| time (UTC) | temp C | wind direction | speed KPH | gust KPH | rain 1hr cm | rain 24hr cm | rain mn cm | humidity % | barometer mb |
| 20260503185042 | 12 | 207 | 22.5 | 53.1 | 0.00 | 0.00 | 0.00 | 59 | 1014.7 |
| 20260503184540 | 13 | 239 | 33.8 | 62.8 | 0.00 | 0.00 | 0.00 | 58 | 1014.6 |
| 20260503184041 | 14 | 220 | 35.4 | 46.7 | 0.00 | 0.00 | 0.00 | 54 | 1014.4 |
| 20260503183541 | 14 | 266 | 22.5 | 45.1 | 0.00 | 0.00 | 0.00 | 53 | 1014.3 |
| 20260503183054 | 15 | 201 | 25.7 | 48.3 | 0.00 | 0.00 | 0.00 | 53 | 1014.3 |
| 20260503182541 | 15 | 174 | 29.0 | 49.9 | 0.00 | 0.00 | 0.00 | 53 | 1014.3 |
| 20260503182039 | 15 | 213 | 32.2 | 49.9 | 0.00 | 0.00 | 0.00 | 52 | 1014.2 |
| 20260503181541 | 15 | 234 | 27.4 | 43.5 | 0.00 | 0.00 | 0.00 | 51 | 1014.1 |
| 20260503181039 | 15 | 229 | 25.7 | 45.1 | 0.00 | 0.00 | 0.00 | 53 | 1014.2 |
| 20260503180538 | 15 | 222 | 25.7 | 45.1 | 0.00 | 0.00 | 0.00 | 51 | 1014.3 |
| 20260503180050 | 15 | 214 | 32.2 | 49.9 | 0.00 | 0.00 | 0.00 | 52 | 1014.4 |
| 20260503175536 | 15 | 233 | 19.3 | 49.9 | 0.00 | 0.00 | 0.00 | 50 | 1014.5 |
| 20260503175036 | 15 | 224 | 27.4 | 53.1 | 0.00 | 0.00 | 0.00 | 52 | 1014.5 |
| 20260503174535 | 15 | 214 | 24.1 | 53.1 | 0.00 | 0.00 | 0.00 | 50 | 1014.7 |
| 20260503174035 | 15 | 218 | 33.8 | 45.1 | 0.00 | 0.00 | 0.00 | 51 | 1014.7 |
| 20260503173534 | 15 | 241 | 20.9 | 53.1 | 0.00 | 0.00 | 0.00 | 51 | 1014.8 |
| 20260503173039 | 15 | 247 | 24.1 | 53.1 | 0.00 | 0.00 | 0.00 | 50 | 1015.0 |
| 20260503172533 | 15 | 268 | 30.6 | 45.1 | 0.00 | 0.00 | 0.00 | 49 | 1015.0 |
| 20260503172032 | 15 | 247 | 24.1 | 37.0 | 0.00 | 0.00 | 0.00 | 50 | 1015.0 |
| 20260503171539 | 15 | 205 | 24.1 | 37.0 | 0.00 | 0.00 | 0.00 | 49 | 1015.0 |
| 20260503171031 | 15 | 217 | 20.9 | 45.1 | 0.00 | 0.00 | 0.00 | 52 | 1015.1 |
| 20260503170530 | 15 | 207 | 25.7 | 45.1 | 0.00 | 0.00 | 0.00 | 53 | 1015.1 |
| 20260503150507 | 13 | 201 | 25.7 | 40.2 | 0.00 | 0.00 | 0.00 | 55 | 1016.7 |
| 20260503140118 | 11 | 216 | 14.5 | 37.0 | 0.00 | 0.00 | 0.00 | 59 | 1016.9 |
| 20260503131042 | 9 | 259 | 17.7 | 27.4 | 0.00 | 0.00 | 0.00 | 60 | 1017.2 |
| 20260503130540 | 8 | 236 | 17.7 | 33.8 | 0.00 | 0.00 | 0.00 | 62 | 1017.2 |
| 20260503110506 | 5 | 228 | 9.7 | 17.7 | 0.00 | 0.00 | 0.00 | 75 | 1016.8 |
| 20260503090106 | 4 | 209 | 9.7 | 12.9 | 0.00 | 0.00 | 0.00 | 76 | 1016.8 |
| 20260503081606 | 4 | 225 | 8.0 | 16.1 | 0.00 | 0.00 | 0.00 | 76 | 1016.9 |
| 20260503081057 | 4 | 211 | 8.0 | 11.3 | 0.00 | 0.00 | 0.00 | 76 | 1016.9 |
| 20260503080559 | 4 | 205 | 8.0 | 12.9 | 0.00 | 0.00 | 0.00 | 75 | 1016.9 |
| 20260503080103 | 4 | 211 | 9.7 | 12.9 | 0.00 | 0.00 | 0.00 | 75 | 1016.9 |
| 20260503072553 | 3 | 201 | 8.0 | 11.3 | 0.00 | 0.00 | 0.00 | 77 | 1017.0 |
| 20260503072054 | 3 | 209 | 8.0 | 11.3 | 0.00 | 0.00 | 0.00 | 77 | 1017.0 |
| 20260503071606 | 3 | 208 | 8.0 | 11.3 | 0.00 | 0.00 | 0.00 | 77 | 1017.1 |
| 20260503071051 | 3 | 209 | 4.8 | 11.3 | 0.00 | 0.00 | 0.00 | 78 | 1017.1 |
| 20260503070550 | 3 | 203 | 6.4 | 11.3 | 0.00 | 0.00 | 0.00 | 78 | 1017.1 |
| 20260503055038 | 3 | 204 | 1.6 | 6.4 | 0.00 | 0.00 | 0.00 | 82 | 1017.7 |
| 20260503054542 | 3 | 202 | 3.2 | 6.4 | 0.00 | 0.00 | 0.00 | 82 | 1017.7 |
| 20260503054037 | 3 | 191 | 0.0 | 3.2 | 0.00 | 0.00 | 0.00 | 82 | 1017.7 |
| 20260503053539 | 3 | 180 | 0.0 | 1.6 | 0.00 | 0.00 | 0.00 | 81 | 1017.8 |
| 20260503053037 | 3 | 185 | 0.0 | 4.8 | 0.00 | 0.00 | 0.00 | 81 | 1017.8 |
| 20260503052538 | 3 | 200 | 1.6 | 4.8 | 0.00 | 0.00 | 0.00 | 81 | 1017.8 |
| 20260503052037 | 3 | 200 | 1.6 | 4.8 | 0.00 | 0.00 | 0.00 | 82 | 1017.8 |
| 20260503051536 | 3 | 193 | 1.6 | 3.2 | 0.00 | 0.00 | 0.00 | 82 | 1017.8 |
| 20260503051036 | 3 | 178 | 0.0 | 1.6 | 0.00 | 0.00 | 0.00 | 82 | 1017.9 |
| 20260503050534 | 3 | 178 | 0.0 | 1.6 | 0.00 | 0.00 | 0.00 | 82 | 1017.9 |
| 20260503050035 | 3 | 185 | 0.0 | 3.2 | 0.00 | 0.00 | 0.00 | 81 | 1017.9 |
| 20260503045535 | 3 | 194 | 0.0 | 4.8 | 0.00 | 0.00 | 0.00 | 81 | 1018.0 |
| 20260503045032 | 3 | 195 | 1.6 | 4.8 | 0.00 | 0.00 | 0.00 | 82 | 1018.0 |
| 20260503044535 | 3 | 180 | 0.0 | 1.6 | 0.00 | 0.00 | 0.00 | 82 | 1018.0 |
| 20260503044031 | 3 | 184 | 0.0 | 1.6 | 0.00 | 0.00 | 0.00 | 82 | 1017.9 |
| 20260503043531 | 3 | 189 | 0.0 | 1.6 | 0.00 | 0.00 | 0.00 | 82 | 1017.9 |
| 20260503043031 | 3 | 182 | 0.0 | 1.6 | 0.00 | 0.00 | 0.00 | 82 | 1017.9 |
| 20260503042530 | 3 | 183 | 0.0 | 1.6 | 0.00 | 0.00 | 0.00 | 82 | 1018.0 |
| 20260503042031 | 3 | 178 | 0.0 | 1.6 | 0.00 | 0.00 | 0.00 | 82 | 1018.0 |
| 20260503041529 | 3 | 174 | 0.0 | 1.6 | 0.00 | 0.00 | 0.00 | 82 | 1018.1 |
| 20260503041030 | 3 | 174 | 0.0 | 1.6 | 0.00 | 0.00 | 0.00 | 82 | 1018.0 |
| 20260503040531 | 3 | 173 | 0.0 | 3.2 | 0.00 | 0.00 | 0.00 | 82 | 1018.1 |
| 20260503040028 | 3 | 174 | 1.6 | 3.2 | 0.00 | 0.00 | 0.00 | 82 | 1018.1 |
| 20260503035528 | 3 | 173 | 0.0 | 1.6 | 0.00 | 0.00 | 0.00 | 82 | 1018.1 |
| 20260503035026 | 3 | 173 | 0.0 | 3.2 | 0.00 | 0.00 | 0.00 | 82 | 1018.1 |
| 20260503034525 | 3 | 173 | 0.0 | 1.6 | 0.00 | 0.00 | 0.00 | 81 | 1018.2 |
| 20260503034025 | 3 | 174 | 0.0 | 1.6 | 0.00 | 0.00 | 0.00 | 81 | 1018.1 |
| 20260503033526 | 3 | 174 | 0.0 | 1.6 | 0.00 | 0.00 | 0.00 | 80 | 1018.1 |
| 20260503033039 | 3 | 174 | 0.0 | 1.6 | 0.00 | 0.00 | 0.00 | 80 | 1018.1 |
| 20260503032524 | 3 | 173 | 0.0 | 3.2 | 0.00 | 0.00 | 0.00 | 80 | 1018.1 |
| 20260503032025 | 4 | 193 | 0.0 | 3.2 | 0.00 | 0.00 | 0.00 | 79 | 1018.0 |
| 20260503031525 | 4 | 193 | 0.0 | 1.6 | 0.00 | 0.00 | 0.00 | 79 | 1018.1 |
| 20260503031024 | 4 | 193 | 0.0 | 1.6 | 0.00 | 0.00 | 0.00 | 79 | 1018.1 |
| 20260503030526 | 4 | 192 | 0.0 | 0.0 | 0.00 | 0.00 | 0.00 | 79 | 1018.1 |
| 20260503030024 | 4 | 192 | 0.0 | 1.6 | 0.00 | 0.00 | 0.00 | 79 | 1018.1 |
| 20260503025525 | 4 | 193 | 0.0 | 1.6 | 0.00 | 0.00 | 0.00 | 79 | 1018.2 |
| 20260503025024 | 4 | 192 | 0.0 | 1.6 | 0.00 | 0.00 | 0.00 | 78 | 1018.3 |
| 20260503024523 | 4 | 193 | 0.0 | 3.2 | 0.00 | 0.00 | 0.00 | 78 | 1018.3 |
| 20260503024023 | 5 | 193 | 1.6 | 4.8 | 0.00 | 0.00 | 0.00 | 78 | 1018.3 |
| 20260503023525 | 5 | 184 | 1.6 | 3.2 | 0.00 | 0.00 | 0.00 | 76 | 1018.3 |
| 20260503023023 | 5 | 184 | 0.0 | 3.2 | 0.00 | 0.00 | 0.00 | 75 | 1018.2 |
| 20260503022524 | 5 | 184 | 0.0 | 8.0 | 0.00 | 0.00 | 0.00 | 74 | 1018.2 |
| 20260503022023 | 5 | 186 | 0.0 | 8.0 | 0.00 | 0.00 | 0.00 | 73 | 1018.3 |
| 20260503021527 | 5 | 249 | 3.2 | 4.8 | 0.00 | 0.00 | 0.00 | 70 | 1018.2 |
| 20260503021024 | 5 | 249 | 0.0 | 1.6 | 0.00 | 0.00 | 0.00 | 65 | 1018.2 |
| 20260503020524 | 5 | 249 | 0.0 | 0.0 | 0.00 | 0.00 | 0.00 | 63 | 1018.1 |
| 20260503020023 | 5 | 249 | 0.0 | 0.0 | 0.00 | 0.00 | 0.00 | 63 | 1018.1 |
| 20260503015523 | 6 | 250 | 0.0 | 0.0 | 0.00 | 0.00 | 0.00 | 63 | 1018.0 |
| 20260503015024 | 6 | 250 | 0.0 | 0.0 | 0.00 | 0.00 | 0.00 | 63 | 1018.1 |
| 20260503014535 | 6 | 249 | 0.0 | 0.0 | 0.00 | 0.00 | 0.00 | 62 | 1018.0 |
| 20260503014022 | 6 | 249 | 0.0 | 0.0 | 0.00 | 0.00 | 0.00 | 63 | 1018.0 |
| 20260503013525 | 6 | 250 | 0.0 | 1.6 | 0.00 | 0.00 | 0.00 | 65 | 1018.0 |
| 20260503013022 | 7 | 249 | 0.0 | 1.6 | 0.00 | 0.00 | 0.00 | 67 | 1018.0 |
| 20260503012522 | 7 | 249 | 0.0 | 3.2 | 0.00 | 0.00 | 0.00 | 66 | 1018.0 |
| 20260503012022 | 7 | 262 | 1.6 | 3.2 | 0.00 | 0.00 | 0.00 | 64 | 1018.0 |
| 20260503011522 | 7 | 317 | 0.0 | 0.0 | 0.00 | 0.00 | 0.00 | 57 | 1017.9 |
| 20260503011022 | 7 | 318 | 0.0 | 0.0 | 0.00 | 0.00 | 0.00 | 51 | 1017.9 |
| 20260503010522 | 8 | 318 | 0.0 | 0.0 | 0.00 | 0.00 | 0.00 | 51 | 1017.9 |
| 20260503010022 | 8 | 318 | 0.0 | 1.6 | 0.00 | 0.00 | 0.00 | 52 | 1017.9 |
| 20260503005521 | 8 | 318 | 0.0 | 3.2 | 0.00 | 0.00 | 0.00 | 51 | 1017.9 |
| 20260503005020 | 8 | 317 | 0.0 | 3.2 | 0.00 | 0.00 | 0.00 | 49 | 1017.9 |
| 20260503004527 | 8 | 320 | 1.6 | 3.2 | 0.00 | 0.00 | 0.00 | 47 | 1017.9 |
| 20260503004019 | 9 | 325 | 0.0 | 4.8 | 0.00 | 0.00 | 0.00 | 46 | 1017.8 |
| 20260503003523 | 9 | 339 | 1.6 | 6.4 | 0.00 | 0.00 | 0.00 | 46 | 1017.9 |
| 20260503003021 | 9 | 318 | 1.6 | 6.4 | 0.00 | 0.00 | 0.00 | 45 | 1017.9 |
| 20260503002521 | 9 | 319 | 1.6 | 6.4 | 0.00 | 0.00 | 0.00 | 44 | 1017.9 |
| 20260503002019 | 10 | 340 | 3.2 | 6.4 | 0.00 | 0.00 | 0.00 | 44 | 1017.8 |
| 20260503001524 | 10 | 311 | 3.2 | 8.0 | 0.00 | 0.00 | 0.00 | 45 | 1017.8 |
| 20260503001022 | 10 | 341 | 3.2 | 12.9 | 0.00 | 0.00 | 0.00 | 44 | 1017.8 |
| 20260503000524 | 10 | 341 | 6.4 | 12.9 | 0.00 | 0.00 | 0.00 | 44 | 1017.8 |
| 20260503000120 | 10 | 322 | 4.8 | 12.9 | 0.00 | 0.00 | 0.00 | 45 | 1017.8 |
| 20260502235519 | 10 | 342 | 4.8 | 12.9 | 0.00 | 0.00 | 0.00 | 43 | 1017.8 |
| 20260502235019 | 10 | 319 | 3.2 | 12.9 | 0.00 | 0.00 | 0.00 | 43 | 1017.8 |
| 20260502234518 | 10 | 332 | 6.4 | 20.9 | 0.00 | 0.00 | 0.00 | 42 | 1017.8 |
| 20260502234019 | 10 | 313 | 9.7 | 20.9 | 0.00 | 0.00 | 0.00 | 41 | 1017.8 |
| 20260502233518 | 10 | 14 | 9.7 | 19.3 | 0.00 | 0.00 | 0.00 | 41 | 1017.8 |
| 20260502233017 | 10 | 311 | 8.0 | 22.5 | 0.00 | 0.00 | 0.00 | 41 | 1017.9 |
| 20260502232518 | 10 | 337 | 9.7 | 22.5 | 0.00 | 0.00 | 0.00 | 40 | 1017.8 |
| 20260502232120 | 10 | 4 | 11.3 | 17.7 | 0.00 | 0.00 | 0.00 | 40 | 1017.8 |
| 20260502231517 | 10 | 293 | 11.3 | 16.1 | 0.00 | 0.00 | 0.00 | 41 | 1017.9 |
| 20260502231017 | 10 | 284 | 9.7 | 17.7 | 0.00 | 0.00 | 0.00 | 41 | 1017.9 |
| 20260502230518 | 10 | 343 | 11.3 | 22.5 | 0.00 | 0.00 | 0.00 | 40 | 1017.9 |
| 20260502230017 | 10 | 345 | 12.9 | 22.5 | 0.00 | 0.00 | 0.00 | 41 | 1017.9 |
| 20260502225517 | 10 | 346 | 8.0 | 17.7 | 0.00 | 0.00 | 0.00 | 41 | 1017.9 |
| 20260502225016 | 10 | 329 | 11.3 | 22.5 | 0.00 | 0.00 | 0.00 | 39 | 1017.9 |
| 20260502224515 | 10 | 346 | 11.3 | 22.5 | 0.00 | 0.00 | 0.00 | 40 | 1017.9 |
| 20260502224019 | 10 | 350 | 8.0 | 24.1 | 0.00 | 0.00 | 0.00 | 39 | 1017.9 |
| 20260502223515 | 10 | 353 | 8.0 | 24.1 | 0.00 | 0.00 | 0.00 | 40 | 1017.9 |
| 20260502223015 | 10 | 337 | 9.7 | 17.7 | 0.00 | 0.00 | 0.00 | 40 | 1017.9 |
| 20260502222515 | 10 | 49 | 6.4 | 19.3 | 0.00 | 0.00 | 0.00 | 42 | 1017.9 |
| 20260502222016 | 10 | 299 | 9.7 | 24.1 | 0.00 | 0.00 | 0.00 | 42 | 1017.9 |
| 20260502221514 | 10 | 4 | 12.9 | 24.1 | 0.00 | 0.00 | 0.00 | 41 | 1017.8 |
| 20260502221014 | 10 | 337 | 12.9 | 22.5 | 0.00 | 0.00 | 0.00 | 40 | 1018.0 |
| 20260502220515 | 10 | 308 | 12.9 | 22.5 | 0.00 | 0.00 | 0.00 | 40 | 1017.9 |
| 20260502220015 | 10 | 299 | 9.7 | 24.1 | 0.00 | 0.00 | 0.00 | 40 | 1017.9 |
| 20260502215517 | 10 | 342 | 11.3 | 24.1 | 0.00 | 0.00 | 0.00 | 41 | 1017.9 |
| 20260502215012 | 10 | 358 | 11.3 | 19.3 | 0.00 | 0.00 | 0.00 | 42 | 1017.9 |
| 20260502214514 | 10 | 303 | 8.0 | 20.9 | 0.00 | 0.00 | 0.00 | 41 | 1017.9 |
| 20260502214014 | 10 | 342 | 9.7 | 20.9 | 0.00 | 0.00 | 0.00 | 41 | 1017.9 |
| 20260502213513 | 10 | 338 | 11.3 | 25.7 | 0.00 | 0.00 | 0.00 | 41 | 1017.9 |
| 20260502213012 | 10 | 347 | 9.7 | 25.7 | 0.00 | 0.00 | 0.00 | 41 | 1017.9 |
| 20260502212513 | 10 | 359 | 11.3 | 20.9 | 0.00 | 0.00 | 0.00 | 43 | 1017.8 |
| 20260502212013 | 10 | 340 | 8.0 | 17.7 | 0.00 | 0.00 | 0.00 | 43 | 1017.8 |
| 20260502211529 | 10 | 331 | 8.0 | 25.7 | 0.00 | 0.00 | 0.00 | 45 | 1017.9 |
| 20260502211012 | 11 | 359 | 16.1 | 25.7 | 0.00 | 0.00 | 0.00 | 43 | 1017.7 |
| 20260502210513 | 10 | 347 | 9.7 | 17.7 | 0.00 | 0.00 | 0.00 | 43 | 1017.8 |
| 20260502210015 | 10 | 335 | 6.4 | 20.9 | 0.00 | 0.00 | 0.00 | 46 | 1017.8 |
| 20260502205511 | 10 | 357 | 11.3 | 22.5 | 0.00 | 0.00 | 0.00 | 44 | 1017.8 |
| 20260502205010 | 10 | 20 | 9.7 | 20.9 | 0.00 | 0.00 | 0.00 | 43 | 1017.8 |
| 20260502204510 | 10 | 328 | 9.7 | 19.3 | 0.00 | 0.00 | 0.00 | 42 | 1018.0 |
| 20260502204010 | 11 | 284 | 4.8 | 24.1 | 0.00 | 0.00 | 0.00 | 46 | 1018.0 |
| 20260502203510 | 11 | 358 | 14.5 | 24.1 | 0.00 | 0.00 | 0.00 | 44 | 1017.9 |
| 20260502203010 | 11 | 328 | 8.0 | 17.7 | 0.00 | 0.00 | 0.00 | 46 | 1018.0 |
| 20260502202508 | 10 | 27 | 6.4 | 22.5 | 0.00 | 0.00 | 0.00 | 46 | 1018.0 |
| 20260502202009 | 10 | 321 | 11.3 | 22.5 | 0.00 | 0.00 | 0.00 | 46 | 1018.1 |
| 20260502201507 | 10 | 287 | 12.9 | 25.7 | 0.00 | 0.00 | 0.00 | 41 | 1018.2 |
| 20260502201007 | 10 | 309 | 12.9 | 25.7 | 0.00 | 0.00 | 0.00 | 45 | 1018.3 |
| 20260502200504 | 10 | 342 | 11.3 | 17.7 | 0.00 | 0.00 | 0.00 | 44 | 1018.3 |
| 20260502200002 | 10 | 339 | 8.0 | 17.7 | 0.00 | 0.00 | 0.00 | 45 | 1018.4 |
| 20260502195505 | 10 | 324 | 11.3 | 19.3 | 0.00 | 0.00 | 0.00 | 45 | 1018.4 |
| 20260502195002 | 10 | 344 | 11.3 | 17.7 | 0.00 | 0.00 | 0.00 | 46 | 1018.6 |
| 20260502194501 | 10 | 357 | 9.7 | 17.7 | 0.00 | 0.00 | 0.00 | 47 | 1018.5 |
| 20260502194002 | 10 | 52 | 8.0 | 16.1 | 0.00 | 0.00 | 0.00 | 46 | 1018.6 |
| 20260502193604 | 9 | 351 | 8.0 | 16.1 | 0.00 | 0.00 | 0.00 | 47 | 1018.7 |
| 20260502193059 | 9 | 314 | 9.7 | 19.3 | 0.00 | 0.00 | 0.00 | 49 | 1018.7 |
| 20260502192600 | 9 | 296 | 11.3 | 19.3 | 0.00 | 0.00 | 0.00 | 47 | 1018.7 |
| 20260502192103 | 9 | 9 | 4.8 | 14.5 | 0.00 | 0.00 | 0.00 | 49 | 1018.8 |
| 20260502191603 | 9 | 14 | 9.7 | 14.5 | 0.00 | 0.00 | 0.00 | 46 | 1018.9 |
| 20260502191059 | 9 | 332 | 9.7 | 19.3 | 0.00 | 0.00 | 0.00 | 48 | 1018.9 |
| 20260502190558 | 9 | 351 | 11.3 | 19.3 | 0.00 | 0.00 | 0.00 | 49 | 1019.0 |
| 20260502190059 | 9 | 293 | 8.0 | 14.5 | 0.00 | 0.00 | 0.00 | 53 | 1019.0 |
| 20260502185557 | 9 | 320 | 8.0 | 16.1 | 0.00 | 0.00 | 0.00 | 49 | 1019.0 |